Location: Bremen
(53.0793°N, 8.8017°E)
Time: 11:23:52
(UTC+02:00)

Altair - Pass Details

Date: 13 April 2024
Orbit: 1501 x 1682 km, 47.2° (Epoch: 17 May)

Event Time Altitude Azimuth Distance (km) Brightness Sun altitude
Rises 22:22:52 0° 225° (SW) 4,886 10.2 -16.5°
Reaches altitude 10° 22:26:13 10° 220° (SW) 3,881 9.6 -16.8°
Maximum altitude 22:35:20 44° 152° (SSE) 2,103 7.8 -17.8°
Drops below altitude 10° 22:44:10 10° 85° (E) 3,758 9.2 -18.7°
Sets 22:47:21 0° 79° (E) 4,719 9.8 -19.0°
